EW0920 Weather Reports


time (UTC)temp
F
wind
direction
speed
knots
gust
knots
rain 1hr
in
rain 24hr
in
rain mn
in
humidity
%
barometer
mb
20260508111530 35 353 0.0 0.0 0.00 0.00 0.00 99 1017.8
20260508111027 34 353 0.0 0.0 0.00 0.00 0.00 99 1017.8
20260508110525 34 353 0.0 0.0 0.00 0.00 0.00 99 1017.7
20260508110021 34 353 0.0 0.0 0.00 0.00 0.00 99 1017.6
20260508105516 34 353 0.0 0.0 0.00 0.00 0.00 99 1017.7
20260508105013 34 353 0.0 0.0 0.00 0.00 0.00 99 1017.8
20260508104511 34 352 0.0 0.0 0.00 0.00 0.00 99 1017.6
20260508104007 34 352 0.0 0.0 0.00 0.00 0.00 99 1017.6
20260508103504 34 352 0.0 0.0 0.00 0.00 0.00 99 1017.4
20260508103001 33 352 0.0 0.0 0.00 0.00 0.00 98 1017.4
20260508102459 34 352 0.0 0.0 0.00 0.00 0.00 98 1017.7
20260508101956 34 352 0.0 0.0 0.00 0.00 0.00 98 1017.4
20260508101454 34 352 0.0 0.0 0.00 0.00 0.00 98 1017.5
20260508100951 34 352 0.0 0.0 0.00 0.00 0.00 98 1017.5
20260508100450 34 353 0.0 0.0 0.00 0.00 0.00 98 1017.4
20260508095945 34 352 0.0 0.0 0.00 0.00 0.00 98 1017.4
20260508095443 34 353 0.0 0.0 0.00 0.00 0.00 98 1017.4
20260508094940 34 353 0.0 0.0 0.00 0.00 0.00 98 1017.3
20260508094436 34 353 0.0 0.0 0.00 0.00 0.00 98 1017.2
20260508093933 34 353 0.0 0.0 0.00 0.00 0.00 98 1017.3
20260508093431 34 353 0.0 0.0 0.00 0.00 0.00 98 1017.2
20260508092928 34 353 0.0 0.0 0.00 0.00 0.00 98 1017.3
20260508092426 34 353 0.0 0.0 0.00 0.00 0.00 98 1017.1
20260508091924 34 353 0.0 0.0 0.00 0.00 0.00 98 1017.3
20260508091421 35 353 0.0 0.0 0.00 0.00 0.00 98 1017.2
20260508090918 35 353 0.0 0.0 0.00 0.00 0.00 98 1017.1
20260508090417 35 353 0.0 0.0 0.00 0.00 0.00 98 1017.2
20260508085912 35 353 0.0 0.0 0.00 0.00 0.00 98 1017.2
20260508085409 35 353 0.0 0.0 0.00 0.00 0.00 98 1017.3
20260508084906 35 353 0.0 0.0 0.00 0.00 0.00 98 1017.2
20260508084402 35 353 0.0 0.0 0.00 0.00 0.00 98 1017.1
20260508083900 35 353 0.0 0.0 0.00 0.00 0.00 98 1017.0
20260508083358 35 353 0.0 0.0 0.00 0.00 0.00 98 1017.0
20260508082857 35 353 0.0 0.0 0.00 0.00 0.00 98 1017.0
20260508082355 35 353 0.0 0.0 0.00 0.00 0.00 98 1017.2
20260508081852 35 353 0.0 0.0 0.00 0.00 0.00 98 1017.0
20260508081348 35 353 0.0 0.0 0.00 0.00 0.00 98 1017.0
20260508080846 35 353 0.0 0.0 0.00 0.00 0.00 98 1017.0
20260508080344 35 353 0.0 0.0 0.00 0.00 0.00 98 1017.0
20260508075840 35 353 0.0 0.0 0.00 0.00 0.00 98 1017.0
20260508075337 35 353 0.0 0.0 0.00 0.00 0.00 98 1016.8
20260508074835 36 353 0.0 0.0 0.00 0.00 0.00 98 1017.1
20260508074332 36 353 0.0 0.0 0.00 0.00 0.00 98 1016.8
20260508073828 36 353 0.0 0.0 0.00 0.00 0.00 98 1016.7
20260508073327 36 353 0.0 0.0 0.00 0.00 0.00 98 1016.8
20260508072822 36 350 0.0 0.0 0.00 0.00 0.00 98 1017.1
20260508072319 36 350 0.0 0.0 0.00 0.00 0.00 98 1017.1
20260508071817 36 350 0.0 0.0 0.00 0.00 0.00 98 1017.0
20260508071315 36 347 0.0 0.0 0.00 0.00 0.00 98 1017.1
20260508070812 36 343 0.0 0.0 0.00 0.00 0.00 98 1017.0
20260508070311 36 0 0.0 0.0 0.00 0.00 0.00 97 1017.1
20260508065807 36 12 0.0 0.0 0.00 0.00 0.00 97 1016.7
20260508065307 36 352 0.0 0.0 0.00 0.00 0.00 97 1017.1
20260508064803 36 352 0.0 0.0 0.00 0.00 0.00 97 1017.2
20260508064301 37 358 0.0 0.0 0.00 0.00 0.00 97 1017.2
20260508063758 37 359 0.0 0.0 0.00 0.00 0.00 97 1017.3
20260508063256 37 359 0.0 0.0 0.00 0.00 0.00 97 1017.1
20260508062753 37 359 0.0 0.0 0.00 0.00 0.00 97 1017.3
20260508062250 37 1 0.0 0.0 0.00 0.00 0.00 97 1017.1
20260508061747 37 0 0.0 0.0 0.00 0.00 0.00 97 1017.1
20260508061244 37 0 0.0 0.0 0.00 0.00 0.00 97 1017.1
20260508060741 37 357 0.0 0.0 0.00 0.00 0.00 97 1017.0
20260508060239 37 357 0.0 0.0 0.00 0.00 0.00 97 1017.2
20260508055734 37 356 0.0 0.0 0.00 0.00 0.00 97 1017.1
20260508055231 37 7 0.0 0.0 0.00 0.00 0.00 96 1017.3
20260508054727 37 9 0.0 0.0 0.00 0.00 0.00 96 1017.3
20260508054226 37 7 0.0 0.0 0.00 0.00 0.00 96 1017.4
20260508053722 38 350 0.0 0.0 0.00 0.00 0.00 96 1017.4
20260508053220 38 356 0.0 0.0 0.00 0.00 0.00 96 1017.4
20260508052717 38 353 0.0 0.0 0.00 0.00 0.00 96 1017.4
20260508052214 38 353 0.0 0.0 0.00 0.00 0.00 96 1017.5
20260508051710 38 352 0.0 0.0 0.00 0.00 0.00 96 1017.4
20260508051205 38 352 0.0 0.0 0.00 0.00 0.00 95 1017.4
20260508050702 38 352 0.0 0.0 0.00 0.00 0.00 95 1017.6
20260508050200 38 352 0.0 0.0 0.00 0.00 0.00 95 1017.6
20260508045654 38 5 0.0 0.0 0.00 0.00 0.00 94 1017.3
20260508045153 38 7 0.0 0.0 0.00 0.00 0.00 94 1017.5
20260508044650 39 8 0.0 0.0 0.00 0.00 0.00 94 1017.4
20260508044146 39 8 0.0 0.0 0.00 0.00 0.00 94 1017.3
20260508043642 39 8 0.0 0.0 0.00 0.00 0.00 94 1017.5
20260508043140 39 359 0.0 0.0 0.00 0.00 0.00 94 1017.6
20260508042637 39 359 0.0 0.0 0.00 0.00 0.00 94 1017.4
20260508042134 39 0 0.0 0.0 0.00 0.00 0.00 93 1017.4
20260508041630 39 13 0.0 0.0 0.00 0.00 0.00 93 1017.1
20260508041127 39 15 0.0 0.0 0.00 0.00 0.00 93 1017.3
20260508040624 40 350 0.0 0.0 0.00 0.00 0.00 92 1017.3
20260508040121 40 349 0.0 0.0 0.00 0.00 0.00 92 1017.4
20260508035618 40 353 0.0 0.0 0.00 0.00 0.00 92 1017.5
20260508035116 40 354 0.0 0.0 0.00 0.00 0.00 91 1017.3
20260508034612 40 356 0.0 0.0 0.00 0.00 0.00 90 1017.2
20260508034109 40 350 0.0 0.0 0.00 0.00 0.00 90 1017.3
20260508033607 41 351 0.0 0.0 0.00 0.00 0.00 90 1017.2
20260508033105 41 1 0.0 0.0 0.00 0.00 0.00 89 1017.2
20260508032601 41 356 0.0 0.0 0.00 0.00 0.00 88 1017.0
20260508032059 41 356 0.0 0.0 0.00 0.00 0.00 88 1017.2
20260508031556 41 359 0.0 0.0 0.00 0.00 0.00 87 1017.3
20260508031052 41 0 0.0 0.0 0.00 0.00 0.00 87 1017.2
20260508030548 41 1 0.0 0.0 0.00 0.00 0.00 86 1017.3
20260508030047 42 356 0.0 0.0 0.00 0.00 0.00 86 1017.1
20260508025542 42 357 0.0 0.0 0.00 0.00 0.00 85 1017.3
20260508025039 42 352 0.0 0.0 0.00 0.00 0.00 85 1017.2
20260508024535 42 352 0.0 0.0 0.00 0.00 0.00 84 1017.1
20260508024033 43 352 0.0 0.0 0.00 0.00 0.00 83 1017.1
20260508023529 43 352 0.0 0.0 0.00 0.00 0.00 82 1017.1
20260508023027 43 352 0.0 0.0 0.00 0.00 0.00 81 1017.2
20260508022522 43 352 0.0 0.0 0.00 0.00 0.00 80 1017.3
20260508022019 44 349 0.0 0.0 0.00 0.00 0.00 79 1017.1
20260508021515 44 349 0.0 0.0 0.00 0.00 0.00 78 1017.1
20260508021011 44 349 0.0 0.0 0.00 0.00 0.00 77 1017.0
20260508020509 44 349 0.0 0.0 0.00 0.00 0.00 76 1017.1
20260508020007 45 349 0.0 0.0 0.00 0.00 0.00 75 1017.0
20260508015504 45 349 0.0 0.0 0.00 0.00 0.00 74 1017.1
20260508015001 45 349 0.0 0.0 0.00 0.00 0.00 73 1017.2
20260508014457 45 349 0.0 0.0 0.00 0.00 0.00 74 1016.8
20260508013953 46 349 0.0 0.0 0.00 0.00 0.00 74 1016.7
20260508013449 46 349 0.0 0.0 0.00 0.00 0.00 73 1016.7
20260508012947 46 349 0.0 0.0 0.00 0.00 0.00 71 1016.7
20260508012444 47 349 0.0 0.0 0.00 0.00 0.00 70 1016.6
20260508011941 47 348 0.0 0.0 0.00 0.00 0.00 68 1016.6
20260508011439 47 347 0.0 0.0 0.00 0.00 0.00 68 1016.4
20260508010936 48 348 0.0 0.0 0.00 0.00 0.00 66 1016.2
20260508010433 48 348 0.0 0.0 0.00 0.00 0.00 66 1016.3
20260508005930 49 356 0.0 0.0 0.00 0.00 0.00 64 1016.2
20260508005427 49 356 0.0 0.0 0.00 0.00 0.00 62 1016.1
20260508004923 50 356 0.0 0.0 0.00 0.00 0.00 62 1016.3
20260508004420 50 356 0.0 0.0 0.00 0.00 0.00 61 1016.1
20260508003916 51 2 0.0 0.0 0.00 0.00 0.00 59 1016.2
20260508003413 52 2 0.0 0.0 0.00 0.00 0.00 58 1016.0
20260508002911 52 2 0.0 0.0 0.00 0.00 0.00 57 1016.2
20260508002407 53 7 0.0 0.0 0.00 0.00 0.00 56 1015.9
20260508001903 53 4 0.0 0.0 0.00 0.00 0.00 58 1015.9
20260508001359 54 4 0.0 0.0 0.00 0.00 0.00 55 1015.8
20260508000856 54 6 0.0 0.0 0.00 0.00 0.00 58 1015.8
20260508000352 55 2 0.0 0.0 0.00 0.00 0.00 52 1015.7
20260507235849 55 5 0.0 0.0 0.00 0.00 0.00 53 1015.6
20260507235346 56 356 0.0 0.0 0.00 0.00 0.00 47 1015.6
20260507234843 56 1 0.0 0.9 0.00 0.00 0.00 47 1015.6
20260507234340 56 3 0.0 0.0 0.00 0.00 0.00 48 1015.6
20260507233836 57 340 0.0 0.9 0.00 0.00 0.00 49 1015.6
20260507233334 57 343 0.0 0.9 0.00 0.00 0.00 47 1015.5
20260507232832 57 3 0.0 0.0 0.00 0.00 0.00 45 1015.3
20260507232328 58 21 0.0 1.7 0.00 0.00 0.00 43 1015.5
20260507231825 58 342 0.0 0.0 0.00 0.00 0.00 50 1015.3
20260507231321 59 347 0.9 1.7 0.00 0.00 0.00 45 1015.4
20260507230817 59 352 0.0 2.6 0.00 0.00 0.00 46 1015.4
20260507230315 59 357 5.2 6.1 0.00 0.00 0.00 42 1015.5
20260507225810 59 81 0.0 1.7 0.00 0.00 0.00 42 1015.4
20260507225306 59 358 0.0 0.9 0.00 0.00 0.00 43 1015.4
20260507224802 60 14 0.0 2.6 0.00 0.00 0.00 46 1015.4
20260507224259 60 345 0.0 0.9 0.00 0.00 0.00 46 1015.3
20260507223755 60 28 0.0 0.9 0.00 0.00 0.00 43 1015.4
20260507223252 60 12 2.6 5.2 0.00 0.00 0.00 41 1015.3
20260507222749 60 286 0.9 5.2 0.00 0.00 0.00 42 1015.2
20260507222245 60 343 0.9 1.7 0.00 0.00 0.00 43 1015.1
20260507221742 61 356 2.6 7.0 0.00 0.00 0.00 40 1015.2
20260507221238 61 346 1.7 1.7 0.00 0.00 0.00 41 1015.0
20260507220735 61 11 4.3 6.1 0.00 0.00 0.00 39 1015.0
20260507220233 61 325 0.9 2.6 0.00 0.00 0.00 38 1015.1
20260507215729 62 51 1.7 2.6 0.00 0.00 0.00 41 1014.9
20260507215227 62 111 0.9 2.6 0.00 0.00 0.00 38 1014.9
20260507214723 63 329 0.0 2.6 0.00 0.00 0.00 39 1014.9
20260507214221 63 166 1.7 2.6 0.00 0.00 0.00 36 1014.7
20260507213716 63 319 0.0 1.7 0.00 0.00 0.00 38 1014.6
20260507213213 63 289 0.0 2.6 0.00 0.00 0.00 38 1014.5
20260507212709 63 335 1.7 1.7 0.00 0.00 0.00 37 1014.7
20260507212206 63 66 0.9 1.7 0.00 0.00 0.00 37 1014.5
20260507211703 63 355 0.9 1.7 0.00 0.00 0.00 42 1014.4
20260507211158 63 294 0.9 2.6 0.00 0.00 0.00 37 1014.4
20260507210656 63 28 0.0 1.7 0.00 0.00 0.00 36 1014.5
20260507210153 63 342 1.7 2.6 0.00 0.00 0.00 35 1014.5
20260507205649 63 264 0.9 3.5 0.00 0.00 0.00 37 1014.7
20260507205146 64 9 0.0 1.7 0.00 0.00 0.00 36 1014.4
20260507204642 64 356 0.9 7.0 0.00 0.00 0.00 35 1014.2
20260507204140 64 346 0.9 2.6 0.00 0.00 0.00 37 1014.2
20260507203638 64 320 0.9 2.6 0.00 0.00 0.00 34 1014.4
20260507203135 63 201 2.6 3.5 0.00 0.00 0.00 36 1014.4
20260507202631 63 257 1.7 6.1 0.00 0.00 0.00 34 1014.4
20260507202127 63 325 0.9 5.2 0.00 0.00 0.00 35 1014.4
20260507201622 62 238 0.9 3.5 0.00 0.00 0.00 39 1014.3
20260507201119 62 352 1.7 5.2 0.00 0.00 0.00 35 1014.3
20260507200615 63 211 2.6 5.2 0.00 0.00 0.00 31 1014.7
20260507200111 63 27 0.0 1.7 0.00 0.00 0.00 35 1014.5
20260507195609 63 343 1.7 5.2 0.00 0.00 0.00 33 1014.7
20260507195106 63 198 2.6 3.5 0.00 0.00 0.00 37 1014.8
20260507194602 64 336 1.7 3.5 0.00 0.00 0.00 33 1014.4
20260507194058 63 70 0.9 5.2 0.00 0.00 0.00 36 1014.5
20260507193555 64 342 2.6 2.6 0.00 0.00 0.00 34 1014.5
20260507193052 65 341 0.0 2.6 0.00 0.00 0.00 32 1014.6
20260507192548 65 3 0.0 1.7 0.00 0.00 0.00 36 1014.8
20260507192045 65 3 1.7 2.6 0.00 0.00 0.00 37 1014.5
20260507191540 64 355 0.0 1.7 0.00 0.00 0.00 39 1014.5
20260507191038 64 288 1.7 2.6 0.00 0.00 0.00 35 1014.6
20260507190535 64 320 0.9 3.5 0.00 0.00 0.00 37 1014.8
20260507190034 64 251 0.9 3.5 0.00 0.00 0.00 38 1014.8
20260507185532 64 324 1.7 2.6 0.00 0.00 0.00 36 1014.8
20260507185028 64 305 0.9 2.6 0.00 0.00 0.00 43 1014.8
20260507184526 64 62 0.9 1.7 0.00 0.00 0.00 39 1014.9
20260507184024 65 263 0.9 0.9 0.00 0.00 0.00 38 1015.1
20260507183519 64 45 1.7 3.5 0.00 0.00 0.00 38 1014.9
20260507183017 62 164 0.9 1.7 0.00 0.00 0.00 40 1014.9
20260507182513 63 324 0.0 1.7 0.00 0.00 0.00 40 1015.0
20260507182009 64 164 0.9 1.7 0.00 0.00 0.00 37 1014.8
20260507181506 63 39 1.7 5.2 0.00 0.00 0.00 36 1014.8
20260507181002 62 327 0.0 1.7 0.00 0.00 0.00 42 1015.3
20260507180459 65 247 0.0 2.6 0.00 0.00 0.00 37 1015.0
20260507175955 62 146 2.6 2.6 0.00 0.00 0.00 39 1015.0
20260507175452 64 122 2.6 5.2 0.00 0.00 0.00 38 1015.2
20260507174949 63 49 0.9 1.7 0.00 0.00 0.00 39 1015.1
20260507174446 64 21 1.7 1.7 0.00 0.00 0.00 38 1015.0
20260507173944 65 339 0.9 3.5 0.00 0.00 0.00 38 1015.3
20260507173441 65 206 3.5 3.5 0.00 0.00 0.00 40 1015.2
20260507172938 64 329 0.9 1.7 0.00 0.00 0.00 38 1015.2
20260507172434 64 255 0.9 5.2 0.00 0.00 0.00 45 1015.4
20260507171931 63 211 0.9 6.1 0.00 0.00 0.00 38 1015.4
20260507171426 65 357 0.0 1.7 0.00 0.00 0.00 41 1015.5
20260507170924 64 352 0.0 1.7 0.00 0.00 0.00 37 1015.6
20260507170420 63 353 0.9 2.6 0.00 0.00 0.00 40 1015.4
20260507165917 64 235 3.5 5.2 0.00 0.00 0.00 41 1015.5
20260507165413 63 39 2.6 2.6 0.00 0.00 0.00 39 1015.6
20260507164909 63 27 0.0 7.0 0.00 0.00 0.00 40 1015.5
20260507164406 64 350 0.9 0.9 0.00 0.00 0.00 40 1015.6
20260507163903 64 21 1.7 1.7 0.00 0.00 0.00 39 1015.6
20260507163401 60 36 0.9 2.6 0.00 0.00 0.00 42 1015.8
20260507162857 63 222 3.5 5.2 0.00 0.00 0.00 40 1015.8
20260507162352 64 301 0.0 0.9 0.00 0.00 0.00 43 1015.6
20260507161850 64 327 0.0 1.7 0.00 0.00 0.00 41 1015.6
20260507161346 63 357 0.0 2.6 0.00 0.00 0.00 40 1016.1
20260507160843 62 196 3.5 5.2 0.00 0.00 0.00 39 1016.1
20260507160338 62 359 1.7 2.6 0.00 0.00 0.00 40 1016.1
20260507155835 62 266 1.7 1.7 0.00 0.00 0.00 43 1015.8
20260507155331 62 316 0.9 2.6 0.00 0.00 0.00 42 1015.8
20260507154828 61 341 0.0 1.7 0.00 0.00 0.00 50 1015.9
20260507154325 62 317 0.0 2.6 0.00 0.00 0.00 45 1015.9
20260507153822 61 11 0.0 3.5 0.00 0.00 0.00 39 1015.8
20260507153318 60 41 1.7 1.7 0.00 0.00 0.00 45 1015.9
20260507152815 59 227 1.7 2.6 0.00 0.00 0.00 47 1015.8
20260507152311 59 227 1.7 1.7 0.00 0.00 0.00 43 1016.0
20260507151807 59 195 2.6 2.6 0.00 0.00 0.00 46 1015.9
20260507151303 59 26 0.9 3.5 0.00 0.00 0.00 46 1015.8
20260507150801 59 23 0.9 2.6 0.00 0.00 0.00 44 1015.8
20260507150257 58 114 3.5 3.5 0.00 0.00 0.00 43 1016.0
20260507145753 58 321 1.7 1.7 0.00 0.00 0.00 44 1016.0
20260507145250 59 179 1.7 2.6 0.00 0.00 0.00 42 1016.2
20260507144747 58 269 0.9 2.6 0.00 0.00 0.00 53 1016.0
20260507144244 58 339 0.0 1.7 0.00 0.00 0.00 54 1016.2
20260507143741 58 355 0.9 1.7 0.00 0.00 0.00 46 1016.2
20260507143238 58 17 0.0 1.7 0.00 0.00 0.00 48 1016.1
20260507142734 57 351 0.0 0.9 0.00 0.00 0.00 51 1016.4
20260507142231 57 33 0.0 2.6 0.00 0.00 0.00 47 1016.1
20260507141727 57 7 0.9 1.7 0.00 0.00 0.00 47 1016.4
20260507141224 57 62 0.0 0.9 0.00 0.00 0.00 52 1016.3
20260507140720 56 281 0.0 0.9 0.00 0.00 0.00 53 1016.4
20260507140218 56 321 0.9 1.7 0.00 0.00 0.00 56 1016.6
20260507135715 55 304 2.6 5.2 0.00 0.00 0.00 52 1016.5
20260507135212 55 327 0.9 1.7 0.00 0.00 0.00 55 1016.6
20260507134708 54 210 0.9 5.2 0.00 0.00 0.00 64 1016.5
20260507134205 54 10 0.0 0.0 0.00 0.00 0.00 65 1016.6
20260507133701 54 15 0.0 0.0 0.00 0.00 0.00 62 1016.8
20260507133158 53 20 0.0 0.0 0.00 0.00 0.00 60 1017.1
20260507132655 53 313 0.9 1.7 0.00 0.00 0.00 69 1017.0
20260507132151 52 357 0.0 0.0 0.00 0.00 0.00 70 1017.0
20260507131648 51 3 0.0 1.7 0.00 0.00 0.00 71 1016.8
20260507131146 51 6 0.0 0.0 0.00 0.00 0.00 76 1017.0
20260507130642 50 6 0.0 1.7 0.00 0.00 0.00 80 1017.0
20260507130140 48 7 0.0 0.0 0.00 0.00 0.00 83 1017.0
20260507125639 48 7 0.0 0.0 0.00 0.00 0.00 87 1016.8
20260507125136 47 3 0.0 0.0 0.00 0.00 0.00 90 1017.1
20260507124632 46 13 0.0 0.0 0.00 0.00 0.00 94 1017.0
20260507124130 45 13 0.0 0.0 0.00 0.00 0.00 96 1017.3
20260507123628 44 19 0.0 0.0 0.00 0.00 0.00 97 1017.3
20260507123125 44 19 0.0 0.0 0.00 0.00 0.00 98 1017.3
20260507122620 43 19 0.0 0.0 0.00 0.00 0.00 98 1017.1
20260507122116 43 26 0.0 0.0 0.00 0.00 0.00 98 1017.1
20260507121612 42 22 0.0 0.0 0.00 0.00 0.00 99 1017.2
20260507121108 42 24 0.0 0.0 0.00 0.00 0.00 99 1017.2
20260507120604 41 8 0.0 0.0 0.00 0.00 0.00 99 1017.4
20260507115557 40 8 0.0 0.0 0.00 0.00 0.00 99 1017.1
20260507115053 40 8 0.0 0.0 0.00 0.00 0.00 99 1017.0
20260507114549 39 8 0.0 0.0 0.00 0.00 0.00 99 1017.0
20260507114047 39 8 0.0 0.0 0.00 0.00 0.00 99 1017.0
20260507113543 39 9 0.0 0.0 0.00 0.00 0.00 99 1017.1
20260507113041 39 8 0.0 0.0 0.00 0.00 0.00 99 1017.0
20260507112538 38 4 0.0 0.0 0.00 0.00 0.00 99 1016.7
20260507112035 38 4 0.0 0.0 0.00 0.00 0.00 99 1016.8